Location: Olmeneta
(45.2333°N, 10.0167°E)
Time: 14:01:44
(UTC+00:00)

Cosmos 1844 - Pass Details

Date: 03 March 2021
Orbit: 822 x 868 km, 70.9° (Epoch: 15 April)

Event Time Altitude Azimuth Distance (km) Brightness Sun altitude
Rises 18:34:20 0° 335° (NNW) 3,459 7.3 -15.6°
Reaches altitude 10° 18:36:50 10° 337° (NNW) 2,514 6.6 -16.1°
Maximum altitude 18:42:37 72° 62° (ENE) 906 3.7 -17.1°
Enters shadow 18:47:00 18° 145° (SE) 1,997 5.2 -17.8°
